Spokane, WA
on Friday, December 14, 2012

Friday
Previous Day Next Day
Daily Summary
 ActualAverageRecord
Temperature
Mean Temperature °F 27°F  
Max Temperature 30°F 32°F 55°F (2002)
Min Temperature 19°F 22°F -8°F (1922)
Degree Days
Heating Degree Days 40 38  
Month to date heating degree days 427 515  
Since 1 July heating degree days 1812 2182  
Cooling Degree Days 0 0  
Month to date cooling degree days 0 0  
Year to date cooling degree days 535 450  
Moisture
Dew Point 27°F   
Average Humidity 96    
Maximum Humidity 100    
Minimum Humidity 91    
Precipitation
Precipitation 0.07 in 0.07 in 0.65 in (2002)
Month to date precipitation 1.17 1.11  
Year to date precipitation 19.91 15.37  
Snow
Snow 1.10 in 0.40 in 4.10 in (1964)
Month to date snowfall 4.2 5.9  
Since 1 July snowfall 10.1 13.4  
Snow Depth 1.00 in   
Wind
Wind Speed 2 mph   
Max Wind Speed 8 mph   
Max Gust Speed 10 mph   
Visibility 4 miles   
Events Fog , Snow   

Key: T is trace of precipitation, MM is missing value
Source: NWS Daily Summary
Time(PST)TemperatureDew PointHumidity Pressure Visibility Wind DirectionWind SpeedGust SpeedPrecipitationEvents Conditions
12:12 AM 19.4°F 19.4°F 100% 29.80 in 1.0 miles Calm Calm - N/A   Mostly Cloudy
12:19 AM 21.2°F 19.4°F 93% 29.79 in 0.5 miles South 3.5 mph - N/A Fog Light Freezing Fog
12:53 AM 27.0°F 26.1°F 96% 29.85 in 0.5 miles SE 4.6 mph - N/A Fog Light Freezing Fog
1:53 AM 27.0°F 27.0°F 100% 29.84 in 0.5 miles SE 5.8 mph - N/A   Overcast
2:53 AM 28.0°F 27.0°F 96% 29.81 in 0.5 miles Calm Calm - N/A   Overcast
3:53 AM 26.6°F 26.6°F 100% 29.74 in 6.0 miles SSE 4.6 mph - N/A   Overcast
4:53 AM 27.0°F 26.1°F 96% 29.79 in 7.0 miles Calm Calm - N/A   Overcast
5:53 AM 26.1°F 25.0°F 96% 29.80 in 10.0 miles Calm Calm - N/A   Overcast
6:53 AM 27.0°F 26.1°F 96% 29.80 in 10.0 miles Calm Calm - N/A   Mostly Cloudy
7:53 AM 27.0°F 26.1°F 96% 29.81 in 2.0 miles South 3.5 mph - 0.00 in Snow Light Snow
8:00 AM 26.6°F 26.6°F 100% 29.74 in 1.2 miles SSE 3.5 mph - 0.00 in Snow Light Snow
8:53 AM 27.0°F 26.1°F 96% 29.82 in 1.2 miles SSE 4.6 mph - 0.01 in Snow Light Snow
9:53 AM 28.0°F 27.0°F 96% 29.83 in 1.8 miles SSE 4.6 mph - 0.01 in Snow Light Snow
9:57 AM 28.4°F 26.6°F 93% 29.75 in 3.0 miles SSE 4.6 mph - N/A Snow Light Snow
10:35 AM 28.4°F 26.6°F 93% 29.75 in 2.0 miles SSE 4.6 mph - 0.00 in Snow Light Snow
10:45 AM 28.4°F 26.6°F 93% 29.75 in 1.5 miles SE 4.6 mph - 0.00 in Snow Light Snow
10:53 AM 28.0°F 27.0°F 96% 29.83 in 2.5 miles SE 3.5 mph - 0.00 in Snow Light Snow
11:05 AM 28.4°F 26.6°F 93% 29.75 in 1.5 miles SSE 3.5 mph - 0.00 in Snow Light Snow
11:31 AM 28.4°F 26.6°F 93% 29.75 in 1.0 miles SSE 4.6 mph - 0.01 in Snow Light Snow
11:53 AM 28.9°F 28.0°F 96% 29.83 in 1.5 miles SE 3.5 mph - 0.01 in Snow Light Snow
12:10 PM 30.2°F 28.4°F 93% 29.75 in 1.5 miles SSE 4.6 mph - 0.00 in Snow Light Snow
12:53 PM 30.0°F 28.0°F 92% 29.82 in 1.5 miles Calm Calm - 0.01 in Snow Light Snow
1:53 PM 30.0°F 28.9°F 96% 29.83 in 1.0 miles Calm Calm - 0.01 in Snow Light Snow
2:53 PM 30.0°F 28.9°F 96% 29.84 in 1.5 miles Calm Calm - 0.01 in Snow Light Snow
3:15 PM 30.2°F 28.4°F 93% 29.78 in 1.5 miles West 3.5 mph - 0.00 in Snow Light Snow
3:53 PM 30.0°F 28.9°F 96% 29.86 in 1.5 miles WNW 4.6 mph - 0.01 in Snow Light Snow
4:53 PM 28.9°F 28.0°F 96% 29.89 in 1.5 miles West 3.5 mph - 0.00 in Snow Light Snow
5:53 PM 28.9°F 28.0°F 96% 29.89 in 2.0 miles WSW 4.6 mph - 0.00 in   Overcast
6:53 PM 28.0°F 28.0°F 100% 29.90 in 2.0 miles Calm Calm - 0.00 in Snow Light Snow
6:58 PM 28.4°F 28.4°F 100% 29.83 in 7.0 miles Calm Calm - 0.00 in   Overcast
7:20 PM 28.4°F 26.6°F 93% 29.84 in 7.0 miles West 3.5 mph - 0.00 in   Overcast
7:53 PM 28.0°F 27.0°F 96% 29.92 in 10.0 miles Calm Calm - 0.00 in   Overcast
8:53 PM 28.0°F 27.0°F 96% 29.92 in 10.0 miles SSW 3.5 mph - N/A   Overcast
9:44 PM 28.4°F 26.6°F 93% 29.86 in 10.0 miles WSW 3.5 mph - N/A   Overcast
9:53 PM 28.0°F 27.0°F 96% 29.94 in 10.0 miles WSW 3.5 mph - N/A   Overcast
10:53 PM 28.0°F 27.0°F 96% 29.95 in 7.0 miles West 3.5 mph - N/A   Overcast
11:53 PM 28.0°F 28.0°F 100% 29.95 in 7.0 miles Calm Calm - N/A   Overcast
Moon Phase
Dec. 14 Dec. 20 Dec. 28 Jan. 04 Jan. 11
Sunrise:07:31 AM (PST) Moon Rise:08:36 AM (PST)12/14
Sunset:03:58 PM (PST) Moon Set:06:02 PM (PST)12/14

Copyright © 2014 The Weather Underground, Inc.